User: anonymous   Login
Location: ????????
(37.9452°N, 23.1472°E)
Time: 02:13:37
(UTC+00:00)
Language:

COSMOS 2455 - Orbit

View from above orbital plane
View from above orbital plane
View from above satellite
View from above satellite

Ground track
Ground track

The orbit data is extracted from the following two-line orbital elements,

1 36095U 09063A   24174.55037653  .00000004  00000-0  57210-4 0  9996
2 36095  67.1464 215.0501 0009171 277.9245  82.0799 13.96909546744104
Epoch (UTC): 22 June 2024 13:12:32
Eccentricity: 0.0009171
inclination: 67.1464°
perigee height: 898 km
apogee height: 911 km
right ascension of ascending node: 215.0501°
argument of perigee: 277.9245°
revolutions per day: 13.96909546
mean anomaly at epoch: 82.0799°
orbit number at epoch: 74410

The dashed part of the orbit path shows where the satellite is in the earth's shadow,  

DLR